Regional Weather Roundup
Issued by NWS

Home | Current Version | Previous Version | Graphics & Text | Print | Product List | Glossary On
Versions: 1 2 3 4 5 6 7 8 9 10 11 12 13 14 15 16 17 18 19 20 21 22 23 24 25 26 27 28 29 30 31 32 33 34 35 36 37 38 39 40 41 42 43 44 45 46 47 48 49 50
000
ASUS45 KABQ 260710
RWRNM
NEW MEXICO REGIONAL WEATHER ROUNDUP
NATIONAL WEATHER SERVICE ALBUQUERQUE NM
100 AM MDT TUE MAY 26 2015

NOTE: "FAIR" MEANS FEW OR NO CLOUDS BELOW 12,000 FEET AGL WITH NO
       SIGNIFICANT WEATHER OR OBSTRUCTIONS TO VISION.

      THIS PRODUCT IS RELEASED AS TWO VERSIONS.  ONE VERSION NEAR
      THE TOP OF THE HOUR CONTAINING PRELIMINARY DATA FROM ALBUQUERQUE
      AND OTHER STATIONS.  A FINAL VERSION WITH ADDITIONAL DATA IS
      ISSUED ABOUT 10 MINUTES AFTER THE HOUR.

NMZ501-503-504-510>518-260800-
NORTHWEST PLATEAU/NORTHCENTRAL MOUNTAINS

CITY           SKY/WX    TMP DP  RH WIND       PRES   REMARKS
FARMINGTON     CLEAR     46  42  86 E3        30.07R
LOS ALAMOS     PTCLDY    47  40  77 CALM      30.13S
SANTA FE       CLEAR     45  39  79 W8        30.08S
TAOS           CLEAR     45  34  65 CALM      30.13R
ANGEL FIRE     FAIR      43  37  79 W15       30.16F

$$
NMZ402-403-502-505>509-260800-
WESTCENTRAL MOUNTAINS/SOUTHWEST MOUNTAINS

CITY           SKY/WX    TMP DP  RH WIND       PRES   REMARKS
GALLUP         CLEAR     40  38  93 NE3       30.14F
GRANTS         CLEAR     41  37  86 NW8       30.15S
SILVER CITY      N/A     54  28  37 N10       30.10F

$$
NMZ407-409-411-412-260800-
SOUTHERN DESERTS

CITY           SKY/WX    TMP DP  RH WIND       PRES   REMARKS
LORDSBURG      FAIR      59  30  33 W8        30.04S
DEMING         CLEAR     60  30  32 SE7       30.03S
LAS CRUCES     CLEAR     64  36  35 N9        30.04R
HOLLOMAN AFB   CLEAR     61  40  45 NE7       29.99F
ALAMOGORDO     CLEAR     66  36  32 N8        30.01F
T OR C         CLEAR     60  40  47 W8        30.05R

$$
NMZ519>523-260800-
CENTRAL VALLEYS/CENTRAL HIGHLANDS

CITY           SKY/WX    TMP DP  RH WIND       PRES   REMARKS
ALBUQUERQUE    CLEAR     52  47  83 E5        30.08S
DOUBLE EAGLE   CLEAR     45  42  90 W8        30.09S
MORIARTY ARPT  FAIR      48  41  77 W6        30.10S
CLINES CORNERS CLEAR     46  40  79 W15       30.08S
BELEN          FAIR      49  46  88 CALM      30.07S
SOCORRO        FAIR      56  42  60 NW3       30.06S

$$
NMZ524>526-539-540-260800-
SOUTHCENTRAL MOUNTAINS

CITY           SKY/WX    TMP DP  RH WIND       PRES   REMARKS
RUIDOSO        PTCLDY    52  36  54 NW10      30.13S

$$
NMZ527>531-260800-
NORTHEAST HIGHLANDS/NORTHEAST PLAINS

CITY           SKY/WX    TMP DP  RH WIND       PRES   REMARKS
LAS VEGAS      PTCLDY    47  35  63 N3        30.06S
RATON          PTCLDY    43  40  89 N8        30.03R
CLAYTON        PTCLDY    49  45  86 W6        29.97S

$$
NMZ532>537-260800-
EASTCENTRAL PLAINS

CITY           SKY/WX    TMP DP  RH WIND       PRES   REMARKS
TUCUMCARI      PTCLDY    57  46  66 W5        29.91R
CANNON AFB     PTCLDY    53  47  78 SW6       29.94S
CLOVIS AIRPORT PTCLDY    55  45  67 W7        29.94S

$$
NMZ028-029-538-260800-
SOUTHEAST PLAINS

CITY           SKY/WX    TMP DP  RH WIND       PRES   REMARKS
ROSWELL        CLEAR     63  43  48 W9        29.94F
ARTESIA        CLEAR     61  43  51 CALM      29.97R
CARLSBAD       CLEAR     65  43  44 CALM      29.94S
HOBBS          CLEAR     59  45  58 NW8       29.96R


$$



USA.gov is the U.S. government's official web portal to all federal, state and local government web resources and services.